Showing default

CHINASAT 6A, 37150

Orbit data source: Space-Track

CHINASAT 6A, 37150 is a payload satellite owned by China Satcom (CN) in GEO that was launched on Sat, 04 Sep 2010 UTC via a CHANG ZHENG 3B launch vehicle from the Xichang Space Center, China (XSC). Payload-class satellites include a variety of spacecraft equipped with specific instruments for various scientific and technological missions. These include communications satellites like Starlink; space stations such as the ISS; scientific satellites like the Hubble; Earth observation satellites from companies like Planet Labs, Umbra, and HawkEye 360; GPS; miniature CubeSats for education and research; and military/defense satellites.

Not visible in the next 10 days
Identifier
37150, 2010-042A
Orbit
GEO
Country
Flag of CNCN / PRC
Related business
Manufacturer
CAST
Mission
Non-operational Commercial Communications
Bus & Motor
DFH-4, FY
Mass
5,100 kg wet, ~2,500 kg dry
Launch date (UTC)
2010-09-04 (15 years ago)
Launch vehicle
CHANG ZHENG 3B
Launch site
Xichang Space Center, China (XSC)
Object type
Payload
Rocket body
Debris
Shape & HBR
Box + 2 Pan, 7.8 m
Radar Cross Section
19.960 m², Large (>1 m²)

Expand to show TLE details & history
Last TLE update: 16 hours ago

TLE from 16 hours ago
0 CHINASAT 6A
1 37150U 10042A   25347.64559043  .00000073  00000-0  00000-0 0  9990
2 37150   3.7478  79.5720 0004863 201.8747 103.4926  0.99692841 56023
Epoch: 2025-12-13T15:29Z
TLE epoch observation values (Epoch: 2025-12-13T15:29:39.013Z)
Latitude
-3.04281°
Longitude
70.06503°
Altitude
35,954.518 km
Speed
3.068 km/s
True Right ascension
01h 40m 11s
True Declination
-3° 02' 23"
Sunlit
Object was in daylight at epoch
Visualization orbit readout
Latitude
Unknown
Longitude
Unknown
Altitude
Unknown
Speed
Unknown
Apparent Right ascension
Unknown
Apparent Declination
Unknown
Sunlit
N/A
Visualization observer readout
Local Sidereal Time
06:27:55
Azimuth
Unknown
Elevation
Unknown
Doppler factor
Unknown
Orbital elements
Apogee altitude
35,971.323 km
Perigee altitude
35,930.154 km
Semi-major axis
42,328.876 km
Eccentricity
0.00049
Inclination
3.7478°
RAAN
79.572°
Arg. of periapsis
201.8747°
True anomaly
103.54678°
Mean anomaly
103.4926°
Eccentric anomaly
103.51969°
Mean motion
0.24922 °/min
Orbital period
1,444.49 mins
BSTAR
0
Loading maneuver chart data...
Computing Atmospheric mass density...
Loading historical data...
Loading historical data...
Loading historical data...
Loading historical data...
Loading historical data...
Loading historical data...
Loading historical data...

Documentation

Showing up to 5 results
|